Location: Crescent
(42.8242°N, 73.7329°W)
Time: 12:14:18
(UTC+00:00)

Vanguard 3 - Pass Details

Date: 19 February 2026
Orbit: 507 x 3205 km, 33.4° (Epoch: 8 March)

Event Time Altitude Azimuth Distance (km) Brightness Sun altitude
Rises 22:50:51 0° 258° (WSW) 4,920 14.4 -4.2°
Reaches altitude 10° 22:55:03 10° 251° (WSW) 3,453 12.2 -5.0°
Maximum altitude 23:02:11 35° 189° (S) 1,462 8.7 -6.3°
Drops below altitude 10° 23:06:43 10° 123° (ESE) 2,175 8.9 -7.1°
Enters shadow 23:08:02 - 117° (ESE) 2,622 9.3 -7.3°
